#timestamp,LO_Frequency,Hit,StdDev 
1649109615.1,286047002.3,N
1649109616.0,286047002.3,N
1649109635.8,286047002.3,N
1649109655.7,286047003.5,N
1649109675.5,286047006.1,N
1649109695.3,286047004.5,N
1649109715.2,286047005.2,N
1649109735.0,286047006.3,Y
1649109735.9,286047006.3,P
1649109755.8,286047000.0,N
1649109775.6,286047005.3,N
1649109795.4,286046999.8,N
1649109815.3,286047002.0,N
1649109835.1,286047003.6,N
1649109855.8,286047005.9,N
1649109875.7,286047005.6,N
1649109895.5,286047004.0,N
1649109915.3,286047001.9,N
1649109935.2,286046996.9,N
1649109955.0,286046997.4,N
1649109955.9,286046997.4,N
1649109975.8,286046997.6,N
1649109995.6,286046997.7,N
1649110015.4,286046999.9,N
1649110035.3,286046997.9,N
1649110055.1,286046999.3,N
1649110075.9,286046998.4,N
1649110095.7,286046996.7,N
1649110115.5,286046993.3,N
1649110135.4,286046998.0,N
1649110155.2,286047001.2,N
1649110175.0,286047001.0,N
1649110175.9,286047001.0,N
1649110195.8,286046998.6,N
1649110215.6,286046998.1,N
1649110235.5,286047001.4,N
1649110255.3,286047005.8,N
1649110275.1,286047007.6,N
1649110295.9,286047006.7,N
1649110315.7,286047003.2,N
1649110335.5,286047005.6,N
1649110355.4,286047005.2,N
1649110375.2,286047006.2,N
1649110395.1,286047007.1,N
1649110396.0,286047007.1,N
1649110415.8,286047009.1,N
1649110435.6,286047007.2,N
1649110455.5,286047007.0,N
1649110475.3,286047005.3,N
1649110495.1,286047004.0,N
1649110515.9,286047002.6,N
1649110535.7,286046999.6,N
1649110555.6,286046997.6,N
1649110575.4,286046996.2,N
1649110595.2,286046997.6,N
1649110615.1,286046994.9,N
1649110616.0,286046994.9,N
1649110635.8,286046990.5,N
1649110655.6,286046993.8,N
1649110675.5,286046993.4,N
1649110695.3,286046994.9,N
1649110715.2,286046994.4,N
1649110735.9,286046989.4,N
1649110755.7,286046992.7,N
1649110775.6,286046993.5,N
1649110795.4,286046998.4,N
1649110815.2,286047000.4,N
1649110835.1,286047000.9,N
1649110836.0,286047000.9,N
1649110855.8,286047001.8,N
1649110875.7,286047005.3,N
1649110895.5,286047006.6,N
1649110915.3,286047004.6,N
1649110935.2,286047004.8,N
1649110955.0,286047005.4,N
1649110955.9,286047005.4,N
1649110975.7,286047005.4,N
1649110995.6,286047010.5,N
1649111015.4,286047010.8,N
1649111035.3,286047011.0,N
1649111055.1,286047014.7,N
1649111056.0,286047014.7,N
1649111075.8,286047012.6,N
1649111095.7,286047013.8,N
1649111115.5,286047012.3,N
1649111135.3,286047006.9,N
1649111155.2,286047010.7,N
1649111175.0,286047011.5,N
1649111175.9,286047011.5,N
1649111195.8,286047011.6,N
1649111215.6,286047009.8,N
1649111235.4,286047009.9,N
1649111255.3,286047009.0,N
1649111275.1,286047008.2,N
1649111295.9,286047013.2,N
1649111315.7,286047013.3,N
1649111335.5,286047010.2,N
1649111355.4,286047007.8,N
1649111375.2,286047009.6,N
1649111395.0,286047010.1,Y
1649111395.9,286047010.1,P
1649111415.8,286047000.2,N
1649111435.6,286047001.4,N
1649111455.5,286047003.6,N
1649111475.3,286047006.0,N
1649111495.1,286047003.4,N
1649111515.9,286047005.7,N
1649111535.7,286047001.3,N
1649111555.5,286047005.5,N
1649111575.4,286047004.0,N
1649111595.2,286047001.9,N
1649111615.1,286047000.4,N
1649111616.0,286047000.4,N
1649111635.8,286047000.3,N
1649111655.6,286047004.2,N
1649111675.5,286047008.4,N
1649111695.3,286047010.6,Y
1649111715.1,286047001.8,P
1649111735.9,286047002.4,N
1649111755.7,286047001.7,N
1649111775.6,286047000.3,N
1649111795.4,286046998.2,N
1649111815.2,286047000.8,N
1649111835.1,286047000.9,N
1649111836.0,286047000.9,N
1649111855.8,286046998.5,N
1649111875.6,286046996.6,N
1649111895.5,286046998.6,N
1649111915.3,286046999.9,N
1649111935.2,286047002.6,N
1649111955.9,286047000.5,N
1649111975.7,286046996.5,N
1649111995.6,286046996.8,N
1649112015.4,286046996.6,N
1649112035.2,286047000.0,N
1649112055.1,286046998.9,N
1649112056.0,286046998.9,N
1649112075.8,286047000.3,N
1649112095.7,286046999.6,N
1649112115.5,286047002.7,N
1649112135.3,286047002.1,N
1649112155.2,286047001.4,N
1649112175.0,286047005.5,N
1649112175.9,286047005.5,N
1649112195.7,286047003.3,N
1649112215.6,286047003.6,N
1649112235.4,286047002.1,N
1649112255.3,286047001.5,N
1649112275.1,286046997.2,N
1649112276.0,286046997.2,N
1649112295.8,286046995.7,N
1649112315.7,286046993.7,N
1649112335.5,286046996.8,N
1649112355.3,286046995.4,N
1649112375.2,286046996.1,N
1649112395.0,286046994.7,N
1649112395.9,286046994.7,N
1649112415.8,286046990.7,N
1649112435.6,286046990.7,N
1649112455.4,286046991.0,N
1649112475.3,286046988.4,N
1649112495.1,286046988.1,N
1649112515.8,286046987.4,N
1649112535.7,286046996.4,N
1649112555.5,286046997.9,N
1649112575.4,286046999.0,N
1649112595.2,286047000.4,N
1649112615.0,286047000.4,N
1649112615.9,286047000.4,N
1649112635.8,286046998.4,N
1649112655.6,286046998.9,N
1649112675.4,286047000.7,N
1649112695.3,286047001.1,N
1649112715.1,286046994.9,N
1649112735.9,286046993.2,N
1649112755.7,286046995.7,N
1649112775.5,286046996.2,N
1649112795.4,286047000.7,N
1649112815.2,286046998.9,N
1649112835.0,286047011.9,Y
1649112835.9,286046995.6,P
1649112855.8,286047001.2,P
1649112875.6,286047000.2,N
1649112895.5,286047003.2,N
1649112915.3,286047004.0,N
1649112935.1,286047005.5,N
1649112955.9,286047007.6,N
1649112975.7,286047006.7,N
1649112995.5,286047007.6,N
1649113015.4,286047004.3,N
1649113035.2,286046999.9,N
1649113055.1,286046996.6,N
1649113056.0,286046996.6,N
1649113075.8,286046997.5,N
1649113095.6,286046997.3,N
1649113115.5,286046998.6,N
1649113135.3,286046997.8,N
1649113155.1,286046999.5,N
1649113175.9,286046996.6,N
1649113195.7,286046997.2,N
